User: anonymous   Login
Location: Mentone
(34.5413°N, 85.5351°W)
Time: 03:04:24
(UTC-06:00)
Language:

Tiros 1 despin weight - Orbit

View from above orbital plane
View from above orbital plane
View from above satellite
View from above satellite

Ground track
Ground track

The orbit data is extracted from the following two-line orbital elements,

1   115U 60002D   18048.34474070 +.00000020 +00000-0 +29765-4 0  9990
2   115 048.1671 045.8314 0033742 098.7370 261.7366 14.83237328065456
Epoch (UTC): 17 February 2018 08:16:25
Eccentricity: 0.0033742
inclination: 48.1671°
perigee height: 595 km
apogee height: 643 km
right ascension of ascending node: 45.8314°
argument of perigee: 98.7370°
revolutions per day: 14.83237328
mean anomaly at epoch: 261.7366°
orbit number at epoch: 6545

The dashed part of the orbit path shows where the satellite is in the earth's shadow,  

DLR